Location: City of Moscow
(46.7306°N, 116.9989°W)
Time: 23:24:32
(UTC+00:00)

RS-15 - Visible Passes

Search period start: 18 April 2026 00:00
Search period end: 28 April 2026 00:00
Orbit: 1893 x 2152 km, 64.8° (Epoch: 18 April)

Date Brightness Start Highest point End Pass type
(mag) Time Alt. Az. Time Alt. Az. Time Alt. Az.
18 Apr 8.8 04:20:51 10° NW 04:31:27 41° NNE 04:41:35 13° E visible
18 Apr 8.0 06:33:46 10° NW 06:45:24 89° SW 06:49:19 52° SSE visible
18 Apr 8.9 08:47:18 10° NW 08:56:25 28° WSW 08:57:03 28° WSW visible
19 Apr 9.0 03:44:27 10° NW 03:54:44 37° NNE 04:05:25 10° E visible
19 Apr 8.1 05:57:40 10° NW 06:09:16 77° NE 06:14:26 42° SE visible
19 Apr 8.6 08:10:43 10° NW 08:20:50 36° WSW 08:22:10 36° WSW visible
20 Apr 9.1 03:07:56 10° NW 03:17:55 34° NNE 03:28:18 10° ENE visible
20 Apr 8.2 05:21:32 10° NW 05:33:01 65° NE 05:39:35 32° ESE visible
20 Apr 8.4 07:34:21 10° NW 07:45:09 47° WSW 07:47:19 43° SW visible
21 Apr 8.4 04:45:23 10° NW 04:56:39 55° NE 05:04:45 23° ESE visible
21 Apr 8.2 06:58:06 10° NW 07:09:21 59° WSW 07:12:29 48° SSW visible
21 Apr 9.5 09:14:21 10° WNW 09:19:09 13° W 09:20:15 13° W visible
22 Apr 8.6 04:09:11 10° NW 04:20:10 48° NE 04:29:57 15° ESE visible
22 Apr 8.1 06:21:56 10° NW 06:33:27 72° WSW 06:37:42 47° S visible
22 Apr 9.3 08:36:25 10° WNW 08:43:48 20° W 08:45:27 19° WSW visible
23 Apr 8.8 03:32:54 10° NW 03:43:34 42° NNE 03:54:39 10° E visible
23 Apr 8.0 05:45:48 10° NW 05:57:26 87° SW 06:02:56 40° SSE visible
23 Apr 9.0 07:59:25 10° NW 08:08:22 27° WSW 08:10:41 25° WSW visible
24 Apr 8.1 05:09:41 10° NW 05:21:19 79° NE 05:28:12 32° SE visible
24 Apr 8.8 07:22:48 10° NW 07:32:48 35° WSW 07:35:57 31° SW visible
25 Apr 8.2 04:33:33 10° NW 04:45:05 67° NE 04:53:29 23° ESE visible
25 Apr 8.6 06:46:24 10° NW 06:57:07 45° WSW 07:01:14 35° SSW visible
26 Apr 8.4 03:57:25 10° NW 04:08:44 57° NE 04:18:48 16° ESE visible
26 Apr 8.3 06:10:08 10° NW 06:21:21 57° WSW 06:26:33 36° S visible
26 Apr 9.6 08:26:48 10° WNW 08:31:03 13° W 08:34:19 11° WSW visible
27 Apr 8.6 03:21:13 10° NW 03:32:16 49° NE 03:43:45 10° ESE visible
27 Apr 8.2 05:33:57 10° NW 05:45:28 70° WSW 05:51:54 33° SSE visible
27 Apr 9.4 07:48:38 10° WNW 07:55:45 19° W 07:59:40 16° WSW visible
